Hourly Weather Roundup
Issued by NWS Central Illinois

Home | Current Version | Previous Version | Text Only | Print | Product List | Glossary On
Versions: 1 2 3 4 5 6 7 8 9 10 11 12 13 14 15 16 17 18 19 20 21 22 23 24 25 26 27 28 29 30 31 32 33 34 35 36 37 38 39 40 41 42 43 44 45 46 47 48 49 50
492
NZUS43 KILX 242010
HWRILX

AREA WEATHER ROUNDUP
NATIONAL WEATHER SERVICE, LINCOLN IL
300 PM CDT SUN JUL 24 2016


CITY           SKY/WX    TMP DP  RH WIND       PRES   REMARKS
BLOOMINGTON    CLOUDY    88  81  79 S17       29.92F HX 106
CHAMPAIGN      CLOUDY    90  78  68 S10       29.95F HX 104
DANVILLE       CLOUDY    90  80  72 SW10      29.93S HX 106
DECATUR        CLOUDY    92  78  63 S14       29.93F HX 107
EFFINGHAM      MOSUNNY   92  79  65 S9        29.97S HX 108
FLORA          MOSUNNY   93  78  62 S10       29.96F HX 108
GALESBURG      PTSUNNY   91  79  68 SW7       29.89S HX 108
JACKSONVILLE   MOSUNNY   92  81  69 S10       29.90S HX 112
LACON          MOSUNNY   92  80  67 SW8G17    29.87R HX 109
LAWRENCEVILLE  MOSUNNY   91  78  65 S9        29.97F HX 106
LITCHFIELD     SUNNY     91  79  68 S8        29.94F HX 107
$$


CITY           SKY/WX    TMP DP  RH WIND       PRES   REMARKS
LINCOLN        CLOUDY    89  82  79 S7        29.91F HX 109
MACOMB         CLOUDY    92  80  69 SW9       29.90S HX 110
MATTOON        SUNNY     90  76  63 S8        29.95F HX 101
MT CARMEL AP   MOSUNNY   90  78  66 S8        29.96F HX 103
OLNEY-NOBLE AP MOSUNNY   90  81  74 S7        29.96F HX 108
PARIS          PTSUNNY   89  81  78 S5        29.97S HX 108
PEORIA         PTSUNNY   91  81  72 S17G23    29.88S HX 111
PONTIAC        CLOUDY    90  83  78 S13G20    29.90S HX 112
RANTOUL        NOT AVBL
ROBINSON       MOSUNNY   92  78  65 S8        29.96F HX 107
SPRINGFIELD    MOSUNNY   92  81  70 S10       29.91F HX 112
TAYLORVILLE    MOSUNNY   91  81  74 NW9       29.93F HX 110
$$

...REGIONAL REPORTS...


CITY           SKY/WX    TMP DP  RH WIND       PRES   REMARKS
CHICAGO O`HARE PTSUNNY   92  77  61 SW17G23   29.84F HX 105
KANKAKEE       NOT AVBL
MOLINE         CLOUDY    90  78  68 W10       29.86S HX 104
MOUNT STERLING CLOUDY    92  79  65 SW7       29.89S HX 108
MOUNT VERNON   CLOUDY    95  75  52 SW8       29.96F HX 107
PITTSFIELD     SUNNY     93  81  66 S9        29.91F HX 113
QUINCY         CLOUDY    95  78  58 SW10      29.89F HX 111
ROCKFORD       PTSUNNY   94  77  57 SW17      29.86F HX 108
$$


CITY           SKY/WX    TMP DP  RH WIND       PRES   REMARKS
BURLINGTON     PTSUNNY   91  82  75 NW7       29.88S HX 113
CEDAR RAPIDS   MOSUNNY   87  80  79 NW9       29.88F HX 103
DES MOINES     CLOUDY    87  64  46 N14       29.93S HX  88
KIRKSVILLE     PTSUNNY   89  74  60 W5        29.93R HX  98
OTTUMWA        CLOUDY    87  78  74 NW13      29.88F HX 100
ST LOUIS       MOSUNNY   99  73  43 SW6       29.92F HX 109
$$


CITY           SKY/WX    TMP DP  RH WIND       PRES   REMARKS
TERRE HAUTE    MOSUNNY   92  77  61 S12       29.96F HX 105
EVANSVILLE     MOSUNNY   91  75  59 SW7       29.97F HX 101
INDIANAPOLIS   PTSUNNY   92  75  57 SW12      29.97F HX 103
LAFAYETTE      MOSUNNY   91  77  63 SW10      29.94F HX 104
MADISON        PTSUNNY   90  79  70 NW9G17    29.83S HX 106
MILWAUKEE      PTSUNNY   92  78  63 S16G22    29.81F HX 107
$$






USA.gov is the U.S. government's official web portal to all federal, state and local government web resources and services.